This is the latest recevied weather packets stored in our database for station/object G4GVZ-1. If no packets are shown the sender has not sent any weather packets the latest 1 day(s).
| Time | Temp. | Humidity | Pressure | Rain* | Wind** | Luminosity | Snow |
|---|---|---|---|---|---|---|---|
| 1778036451 | 8.33° C | 76% | 1013.5 hPa | 0 mm | 0.45 m/s, 55° | - | - |
| 1778035549 | 8.89° C | 79% | 1013.4 hPa | 0 mm | 0.45 m/s, 54° | - | - |
| 1778034649 | 8.89° C | 78% | 1013.3 hPa | 0 mm | 1.34 m/s, 58° | - | - |
| 1778033748 | 8.89° C | 79% | 1013.3 hPa | 0 mm | 0 m/s | - | - |
| 1778032848 | 9.44° C | 79% | 1013.4 hPa | 0 mm | 0.45 m/s, 73° | - | - |
| 1778031948 | 9.44° C | 78% | 1013.4 hPa | 0 mm | 0.89 m/s, 66° | - | - |
| 1778031048 | 9.44° C | 77% | 1013.5 hPa | 0 mm | 0.89 m/s, 84° | - | - |
| 1778030148 | 9.44° C | 75% | 1013.6 hPa | 0 mm | 0.89 m/s, 89° | - | - |
| 1778029247 | 9.44° C | 75% | 1013.5 hPa | 0 mm | 2.24 m/s, 88° | - | - |
| 1778028347 | 9.44° C | 74% | 1013.5 hPa | 0 mm | 1.79 m/s, 84° | - | - |
| 1778027449 | 10° C | 75% | 1013.5 hPa | 0 mm | 2.24 m/s, 90° | - | - |
| 1778026549 | 10° C | 76% | 1013.4 hPa | 0 mm | 2.24 m/s, 82° | - | - |
| 1778025648 | 10.56° C | 77% | 1013.3 hPa | 0 mm | 1.79 m/s, 73° | - | - |
| 1778024748 | 10.56° C | 78% | 1013.3 hPa | 0 mm | 1.34 m/s, 76° | - | - |
| 1778023848 | 10.56° C | 78% | 1013.4 hPa | 0 mm | 0.89 m/s, 64° | - | - |
| 1778022948 | 10.56° C | 78% | 1013.4 hPa | 0 mm | 1.34 m/s, 70° | - | - |
| 1778022048 | 10.56° C | 78% | 1013.4 hPa | 0 mm | 0.45 m/s, 50° | - | - |
| 1778021148 | 10.56° C | 78% | 1013.2 hPa | 0 mm | 0 m/s | - | - |
| 1778020250 | 10.56° C | 78% | 1013.2 hPa | 0 mm | 0.89 m/s, 42° | - | - |
| 1778019349 | 10.56° C | 80% | 1013.3 hPa | 0 mm | 0.45 m/s, 347° | - | - |
| 1778018449 | 10.56° C | 80% | 1013.2 hPa | 0 mm | 0 m/s | - | - |
| 1778017549 | 10.56° C | 79% | 1013.1 hPa | 0 mm | 0 m/s | - | - |
| 1778016648 | 10.56° C | 78% | 1013.2 hPa | 0 mm | 0 m/s | - | - |
| 1778015748 | 11.11° C | 77% | 1013.2 hPa | 0 mm | 0 m/s | - | - |
| 1778014850 | 11.11° C | 77% | 1013.2 hPa | 0 mm | 0.45 m/s, 346° | - | - |
* Rain latest hour (hover to see other rain measurements)
** Current wind speed in m/s (hover to see current wind gust speed)